Time,TemperatureF,DewpointF,PressureIn,WindDirection,WindDirectionDegrees,WindSpeedMPH,WindSpeedGustMPH,Humidity,HourlyPrecipIn,Conditions,Clouds,dailyrainin,SoftwareType,DateUTC
2013-03-28 00:00:00,33.3,27.2,30.37,ENE,76,2.0,4.0,78,0.00,,---,0.00,VWS V14.01,2013-03-28 05:00:00,
2013-03-28 00:03:00,33.3,27.2,30.37,NE,56,1.0,2.0,78,0.00,,---,0.00,VWS V14.01,2013-03-28 05:03:00,
2013-03-28 00:08:00,33.2,27.1,30.37,ENE,70,1.0,2.0,78,0.00,,---,0.00,VWS V14.01,2013-03-28 05:08:00,
2013-03-28 00:13:00,33.1,27.3,30.37,ENE,67,0.0,2.0,79,0.00,,---,0.00,VWS V14.01,2013-03-28 05:13:00,
2013-03-28 00:18:00,33.1,27.3,30.37,ESE,103,0.0,3.0,79,0.00,,---,0.00,VWS V14.01,2013-03-28 05:18:00,
2013-03-28 00:23:00,33.2,27.1,30.37,East,93,1.0,3.0,78,0.00,,---,0.00,VWS V14.01,2013-03-28 05:23:00,
2013-03-28 00:28:00,33.1,27.0,30.37,ENE,75,1.0,3.0,78,0.00,,---,0.00,VWS V14.01,2013-03-28 05:28:00,
2013-03-28 00:30:00,33.1,27.0,30.37,ENE,75,0.0,3.0,78,0.00,,---,0.00,VWS V14.01,2013-03-28 05:30:00,
2013-03-28 00:33:00,32.9,26.8,30.37,ENE,58,0.0,3.0,78,0.00,,---,0.00,VWS V14.01,2013-03-28 05:33:00,
2013-03-28 00:38:00,32.9,26.8,30.37,East,89,1.0,3.0,78,0.00,,---,0.00,VWS V14.01,2013-03-28 05:38:00,
2013-03-28 00:43:00,32.8,26.7,30.38,ENE,75,1.0,3.0,78,0.00,,---,0.00,VWS V14.01,2013-03-28 05:43:00,
2013-03-28 00:48:00,32.7,26.6,30.38,NNE,32,2.0,3.0,78,0.00,,---,0.00,VWS V14.01,2013-03-28 05:48:00,
2013-03-28 00:53:00,32.6,26.8,30.37,NE,43,1.0,3.0,79,0.00,,---,0.00,VWS V14.01,2013-03-28 05:53:00,
2013-03-28 00:58:00,32.5,26.7,30.38,ENE,67,1.0,4.0,79,0.00,,---,0.00,VWS V14.01,2013-03-28 05:58:00,
2013-03-28 01:00:00,32.5,26.7,30.38,ENE,76,1.0,4.0,79,0.00,,---,0.00,VWS V14.01,2013-03-28 06:00:00,
2013-03-28 01:04:00,32.5,26.7,30.38,East,99,2.0,3.0,79,0.00,,---,0.00,VWS V14.01,2013-03-28 06:04:00,
2013-03-28 01:09:00,32.4,26.6,30.38,ENE,78,0.0,3.0,79,0.00,,---,0.00,VWS V14.01,2013-03-28 06:09:00,
2013-03-28 01:14:00,32.3,26.5,30.38,East,94,0.0,3.0,79,0.00,,---,0.00,VWS V14.01,2013-03-28 06:14:00,
2013-03-28 01:19:00,32.3,26.5,30.38,ENE,65,0.0,3.0,79,0.00,,---,0.00,VWS V14.01,2013-03-28 06:19:00,
2013-03-28 01:24:00,32.2,26.4,30.38,NE,46,1.0,3.0,79,0.00,,---,0.00,VWS V14.01,2013-03-28 06:24:00,
2013-03-28 01:29:00,32.1,26.3,30.38,East,84,1.0,3.0,79,0.00,,---,0.00,VWS V14.01,2013-03-28 06:29:00,
2013-03-28 01:30:00,32.1,26.3,30.38,East,83,1.0,3.0,79,0.00,,---,0.00,VWS V14.01,2013-03-28 06:30:00,
2013-03-28 01:34:00,32.1,26.6,30.38,NE,56,1.0,2.0,80,0.00,,---,0.00,VWS V14.01,2013-03-28 06:34:00,
2013-03-28 01:39:00,32.0,26.5,30.38,East,83,1.0,2.0,80,0.00,,---,0.00,VWS V14.01,2013-03-28 06:39:00,
2013-03-28 01:44:00,31.8,26.4,30.38,East,84,0.0,2.0,80,0.00,,---,0.00,VWS V14.01,2013-03-28 06:44:00,
2013-03-28 01:49:00,31.7,26.2,30.38,East,79,1.0,2.0,80,0.00,,---,0.00,VWS V14.01,2013-03-28 06:49:00,
2013-03-28 01:54:00,31.6,26.1,30.39,ENE,58,2.0,2.0,80,0.00,,---,0.00,VWS V14.01,2013-03-28 06:54:00,
2013-03-28 01:59:00,31.4,26.2,30.38,ENE,57,1.0,1.0,81,0.00,,---,0.00,VWS V14.01,2013-03-28 06:59:00,
2013-03-28 02:00:00,31.4,26.2,30.38,ENE,57,2.0,2.0,81,0.00,,---,0.00,VWS V14.01,2013-03-28 07:00:00,
2013-03-28 02:05:00,31.2,26.1,30.38,NE,49,1.0,2.0,81,0.00,,---,0.00,VWS V14.01,2013-03-28 07:05:00,
2013-03-28 02:10:00,31.2,26.1,30.38,ENE,71,1.0,2.0,81,0.00,,---,0.00,VWS V14.01,2013-03-28 07:10:00,
2013-03-28 02:15:00,31.0,26.2,30.38,NE,53,1.0,2.0,82,0.00,,---,0.00,VWS V14.01,2013-03-28 07:15:00,
2013-03-28 02:20:00,30.9,26.1,30.38,NNE,33,1.0,3.0,82,0.00,,---,0.00,VWS V14.01,2013-03-28 07:20:00,
2013-03-28 02:25:00,30.8,26.0,30.38,ENE,65,1.0,3.0,82,0.00,,---,0.00,VWS V14.01,2013-03-28 07:25:00,
2013-03-28 02:30:00,30.7,25.9,30.38,NE,53,0.0,0.0,82,0.00,,---,0.00,VWS V14.01,2013-03-28 07:30:00,
2013-03-28 02:35:00,30.6,26.1,30.38,ENE,64,1.0,2.0,83,0.00,,---,0.00,VWS V14.01,2013-03-28 07:35:00,
2013-03-28 02:40:00,30.6,26.1,30.38,East,96,0.0,2.0,83,0.00,,---,0.00,VWS V14.01,2013-03-28 07:40:00,
2013-03-28 02:45:00,30.5,26.0,30.38,ENE,65,0.0,2.0,83,0.00,,---,0.00,VWS V14.01,2013-03-28 07:45:00,
2013-03-28 02:50:00,30.4,25.9,30.38,East,79,1.0,2.0,83,0.00,,---,0.00,VWS V14.01,2013-03-28 07:50:00,
2013-03-28 02:55:00,30.4,25.9,30.38,ENE,78,1.0,2.0,83,0.00,,---,0.00,VWS V14.01,2013-03-28 07:55:00,
2013-03-28 03:00:00,30.4,25.9,30.37,ENE,78,0.0,0.0,83,0.00,,---,0.00,VWS V14.01,2013-03-28 08:00:00,
2013-03-28 03:05:00,30.2,25.7,30.37,ENE,77,1.0,1.0,83,0.00,,---,0.00,VWS V14.01,2013-03-28 08:05:00,
2013-03-28 03:10:00,30.3,25.8,30.37,ENE,78,1.0,2.0,83,0.00,,---,0.00,VWS V14.01,2013-03-28 08:10:00,
2013-03-28 03:15:00,30.3,25.8,30.37,East,96,0.0,2.0,83,0.00,,---,0.00,VWS V14.01,2013-03-28 08:15:00,
2013-03-28 03:21:00,30.3,25.8,30.37,East,84,0.0,2.0,83,0.00,,---,0.00,VWS V14.01,2013-03-28 08:21:00,
2013-03-28 03:26:00,30.2,25.7,30.37,East,82,1.0,2.0,83,0.00,,---,0.00,VWS V14.01,2013-03-28 08:26:00,
2013-03-28 03:30:00,30.3,26.1,30.37,East,82,0.0,2.0,84,0.00,,---,0.00,VWS V14.01,2013-03-28 08:30:00,
2013-03-28 03:31:00,30.3,26.1,30.37,East,82,0.0,0.0,84,0.00,,---,0.00,VWS V14.01,2013-03-28 08:31:00,
2013-03-28 03:36:00,30.4,26.1,30.37,East,79,1.0,2.0,84,0.00,,---,0.00,VWS V14.01,2013-03-28 08:36:00,
2013-03-28 03:41:00,30.3,25.8,30.37,ENE,58,1.0,2.0,83,0.00,,---,0.00,VWS V14.01,2013-03-28 08:41:00,
2013-03-28 03:46:00,30.1,25.9,30.37,ENE,58,0.0,2.0,84,0.00,,---,0.00,VWS V14.01,2013-03-28 08:46:00,
2013-03-28 03:51:00,30.0,25.8,30.37,ENE,70,0.0,2.0,84,0.00,,---,0.00,VWS V14.01,2013-03-28 08:51:00,
2013-03-28 03:56:00,30.0,25.8,30.37,East,81,1.0,2.0,84,0.00,,---,0.00,VWS V14.01,2013-03-28 08:56:00,
2013-03-28 04:00:00,30.0,25.8,30.37,East,79,1.0,2.0,84,0.00,,---,0.00,VWS V14.01,2013-03-28 09:00:00,
2013-03-28 04:02:00,30.0,25.8,30.37,ENE,74,1.0,2.0,84,0.00,,---,0.00,VWS V14.01,2013-03-28 09:02:00,
2013-03-28 04:07:00,29.9,25.7,30.37,East,99,1.0,2.0,84,0.00,,---,0.00,VWS V14.01,2013-03-28 09:07:00,
2013-03-28 04:12:00,29.8,25.9,30.36,ENE,75,1.0,2.0,85,0.00,,---,0.00,VWS V14.01,2013-03-28 09:12:00,
2013-03-28 04:17:00,29.7,25.8,30.36,NE,45,2.0,2.0,85,0.00,,---,0.00,VWS V14.01,2013-03-28 09:17:00,
2013-03-28 04:22:00,29.5,25.6,30.36,NE,46,2.0,3.0,85,0.00,,---,0.00,VWS V14.01,2013-03-28 09:22:00,
2013-03-28 04:27:00,29.3,25.4,30.36,ENE,58,1.0,3.0,85,0.00,,---,0.00,VWS V14.01,2013-03-28 09:27:00,
2013-03-28 04:30:00,29.3,25.4,30.36,ENE,60,2.0,3.0,85,0.00,,---,0.00,VWS V14.01,2013-03-28 09:30:00,
2013-03-28 04:32:00,29.3,25.6,30.36,ENE,76,1.0,3.0,86,0.00,,---,0.00,VWS V14.01,2013-03-28 09:32:00,
2013-03-28 04:37:00,29.2,25.5,30.36,NE,42,1.0,3.0,86,0.00,,---,0.00,VWS V14.01,2013-03-28 09:37:00,
2013-03-28 04:42:00,29.1,25.4,30.36,NE,56,1.0,3.0,86,0.00,,---,0.00,VWS V14.01,2013-03-28 09:42:00,
2013-03-28 04:47:00,29.0,25.4,30.36,NE,53,0.0,3.0,86,0.00,,---,0.00,VWS V14.01,2013-03-28 09:47:00,
2013-03-28 04:52:00,29.0,25.4,30.36,NE,53,1.0,3.0,86,0.00,,---,0.00,VWS V14.01,2013-03-28 09:52:00,
2013-03-28 04:57:00,29.0,25.6,30.36,ENE,65,1.0,3.0,87,0.00,,---,0.00,VWS V14.01,2013-03-28 09:57:00,
2013-03-28 05:00:00,29.0,25.6,30.36,ENE,58,2.0,3.0,87,0.00,,---,0.00,VWS V14.01,2013-03-28 10:00:00,
2013-03-28 05:02:00,29.0,25.6,30.36,NE,55,1.0,3.0,87,0.00,,---,0.00,VWS V14.01,2013-03-28 10:02:00,
2013-03-28 05:07:00,28.8,25.4,30.36,East,84,1.0,3.0,87,0.00,,---,0.00,VWS V14.01,2013-03-28 10:07:00,
2013-03-28 05:13:00,28.8,25.4,30.36,ENE,77,1.0,3.0,87,0.00,,---,0.00,VWS V14.01,2013-03-28 10:13:00,
2013-03-28 05:18:00,28.8,25.4,30.36,NE,45,1.0,3.0,87,0.00,,---,0.00,VWS V14.01,2013-03-28 10:18:00,
2013-03-28 05:23:00,28.8,25.4,30.36,ENE,70,1.0,3.0,87,0.00,,---,0.00,VWS V14.01,2013-03-28 10:23:00,
2013-03-28 05:28:00,28.8,25.4,30.36,East,87,1.0,3.0,87,0.00,,---,0.00,VWS V14.01,2013-03-28 10:28:00,
2013-03-28 05:30:00,28.8,25.4,30.36,East,79,1.0,3.0,87,0.00,,---,0.00,VWS V14.01,2013-03-28 10:30:00,
2013-03-28 05:33:00,28.8,25.4,30.36,East,81,0.0,2.0,87,0.00,,---,0.00,VWS V14.01,2013-03-28 10:33:00,
2013-03-28 05:38:00,28.8,25.4,30.36,East,84,1.0,2.0,87,0.00,,---,0.00,VWS V14.01,2013-03-28 10:38:00,
2013-03-28 05:43:00,28.9,25.5,30.36,NE,56,1.0,3.0,87,0.00,,---,0.00,VWS V14.01,2013-03-28 10:43:00,
2013-03-28 05:48:00,29.0,25.9,30.36,ENE,68,2.0,3.0,88,0.00,,---,0.00,VWS V14.01,2013-03-28 10:48:00,
2013-03-28 05:53:00,29.1,25.7,30.36,ENE,58,1.0,3.0,87,0.00,,---,0.00,VWS V14.01,2013-03-28 10:53:00,
2013-03-28 05:58:00,29.0,25.6,30.36,East,94,1.0,3.0,87,0.00,,---,0.00,VWS V14.01,2013-03-28 10:58:00,
2013-03-28 06:00:00,29.0,25.6,30.36,ENE,70,1.0,3.0,87,0.00,,---,0.00,VWS V14.01,2013-03-28 11:00:00,
2013-03-28 06:03:00,29.0,25.6,30.36,ESE,113,0.0,2.0,87,0.00,,---,0.00,VWS V14.01,2013-03-28 11:03:00,
2013-03-28 06:08:00,29.2,25.8,30.37,ENE,67,1.0,3.0,87,0.00,,---,0.00,VWS V14.01,2013-03-28 11:08:00,
2013-03-28 06:13:00,29.3,25.9,30.36,ENE,69,1.0,4.0,87,0.00,,---,0.00,VWS V14.01,2013-03-28 11:13:00,
2013-03-28 06:19:00,29.2,25.8,30.37,East,86,2.0,4.0,87,0.00,,---,0.00,VWS V14.01,2013-03-28 11:19:00,
2013-03-28 06:24:00,29.2,25.8,30.37,East,81,1.0,4.0,87,0.00,,---,0.00,VWS V14.01,2013-03-28 11:24:00,
2013-03-28 06:29:00,29.2,25.8,30.37,East,79,0.0,4.0,87,0.00,,---,0.00,VWS V14.01,2013-03-28 11:29:00,
2013-03-28 06:30:00,29.1,25.7,30.37,East,79,0.0,4.0,87,0.00,,---,0.00,VWS V14.01,2013-03-28 11:30:00,
2013-03-28 06:34:00,29.1,25.7,30.36,ESE,116,0.0,2.0,87,0.00,,---,0.00,VWS V14.01,2013-03-28 11:34:00,
2013-03-28 06:39:00,29.2,25.8,30.36,ENE,78,4.0,4.0,87,0.00,,---,0.00,VWS V14.01,2013-03-28 11:39:00,
2013-03-28 06:44:00,29.3,25.9,30.36,ENE,71,1.0,4.0,87,0.00,,---,0.00,VWS V14.01,2013-03-28 11:44:00,
2013-03-28 06:49:00,29.5,26.1,30.36,ENE,69,2.0,4.0,87,0.00,,---,0.00,VWS V14.01,2013-03-28 11:49:00,
2013-03-28 06:54:00,29.6,26.2,30.37,ESE,115,2.0,5.0,87,0.00,,---,0.00,VWS V14.01,2013-03-28 11:54:00,
2013-03-28 06:59:00,29.8,26.4,30.37,East,101,2.0,5.0,87,0.00,,---,0.00,VWS V14.01,2013-03-28 11:59:00,
2013-03-28 07:00:00,29.8,26.4,30.37,East,101,2.0,5.0,87,0.00,,---,0.00,VWS V14.01,2013-03-28 12:00:00,
2013-03-28 07:04:00,29.9,26.2,30.37,ESE,106,1.0,4.0,86,0.00,,---,0.00,VWS V14.01,2013-03-28 12:04:00,
2013-03-28 07:09:00,29.9,26.2,30.37,ESE,122,0.0,4.0,86,0.00,,---,0.00,VWS V14.01,2013-03-28 12:09:00,
2013-03-28 07:14:00,29.8,26.1,30.37,East,91,1.0,4.0,86,0.00,,---,0.00,VWS V14.01,2013-03-28 12:14:00,
2013-03-28 07:19:00,29.8,26.1,30.37,East,79,0.0,4.0,86,0.00,,---,0.00,VWS V14.01,2013-03-28 12:19:00,
2013-03-28 07:24:00,29.9,26.2,30.37,ENE,76,2.0,4.0,86,0.00,,---,0.00,VWS V14.01,2013-03-28 12:24:00,
2013-03-28 07:29:00,29.9,26.2,30.38,East,92,1.0,1.0,86,0.00,,---,0.00,VWS V14.01,2013-03-28 12:29:00,
2013-03-28 07:30:00,30.0,26.3,30.37,East,91,1.0,4.0,86,0.00,,---,0.00,VWS V14.01,2013-03-28 12:30:00,
2013-03-28 07:34:00,30.1,26.4,30.37,East,83,2.0,3.0,86,0.00,,---,0.00,VWS V14.01,2013-03-28 12:34:00,
2013-03-28 07:39:00,30.4,26.4,30.37,East,89,2.0,3.0,85,0.00,,---,0.00,VWS V14.01,2013-03-28 12:39:00,
2013-03-28 07:44:00,30.5,26.5,30.38,East,79,2.0,4.0,85,0.00,,---,0.00,VWS V14.01,2013-03-28 12:44:00,
2013-03-28 07:50:00,30.8,26.8,30.38,East,82,2.0,4.0,85,0.00,,---,0.00,VWS V14.01,2013-03-28 12:50:00,
2013-03-28 07:55:00,31.0,26.7,30.37,ESE,105,2.0,4.0,84,0.00,,---,0.00,VWS V14.01,2013-03-28 12:55:00,
2013-03-28 08:00:00,31.4,26.8,30.38,East,96,2.0,3.0,83,0.00,,---,0.00,VWS V14.01,2013-03-28 13:00:00,
2013-03-28 08:05:00,31.7,27.1,30.37,East,101,2.0,4.0,83,0.00,,---,0.00,VWS V14.01,2013-03-28 13:05:00,
2013-03-28 08:10:00,32.0,27.1,30.37,ESE,106,2.0,5.0,82,0.00,,---,0.00,VWS V14.01,2013-03-28 13:10:00,
2013-03-28 08:15:00,32.3,27.1,30.37,East,98,3.0,5.0,81,0.00,,---,0.00,VWS V14.01,2013-03-28 13:15:00,
2013-03-28 08:20:00,32.6,27.4,30.37,ESE,123,3.0,5.0,81,0.00,,---,0.00,VWS V14.01,2013-03-28 13:20:00,
2013-03-28 08:25:00,33.1,27.6,30.37,ESE,103,3.0,5.0,80,0.00,,---,0.00,VWS V14.01,2013-03-28 13:25:00,
2013-03-28 08:30:00,33.4,27.6,30.37,East,83,2.0,4.0,79,0.00,,---,0.00,VWS V14.01,2013-03-28 13:30:00,
2013-03-28 08:35:00,33.8,27.7,30.37,SE,129,3.0,6.0,78,0.00,,---,0.00,VWS V14.01,2013-03-28 13:35:00,
2013-03-28 08:40:00,34.1,27.7,30.37,ENE,72,4.0,7.0,77,0.00,,---,0.00,VWS V14.01,2013-03-28 13:40:00,
2013-03-28 08:46:00,34.3,27.5,30.38,SE,140,8.0,8.0,76,0.00,,---,0.00,VWS V14.01,2013-03-28 13:46:00,
2013-03-28 08:51:00,34.7,27.9,30.37,ESE,105,3.0,8.0,76,0.00,,---,0.00,VWS V14.01,2013-03-28 13:51:00,
2013-03-28 08:56:00,35.2,27.8,30.38,East,100,4.0,8.0,74,0.00,,---,0.00,VWS V14.01,2013-03-28 13:56:00,
2013-03-28 09:00:00,35.5,28.0,30.37,ENE,65,5.0,8.0,74,0.00,,---,0.00,VWS V14.01,2013-03-28 14:00:00,
2013-03-28 09:01:00,35.7,27.9,30.37,East,85,6.0,8.0,73,0.00,,---,0.00,VWS V14.01,2013-03-28 14:01:00,
2013-03-28 09:06:00,36.2,28.4,30.37,East,93,5.0,8.0,73,0.00,,---,0.00,VWS V14.01,2013-03-28 14:06:00,
2013-03-28 09:12:00,36.6,28.4,30.37,East,94,4.0,8.0,72,0.00,,---,0.00,VWS V14.01,2013-03-28 14:12:00,
2013-03-28 09:17:00,37.0,28.5,30.38,East,96,3.0,8.0,71,0.00,,---,0.00,VWS V14.01,2013-03-28 14:17:00,
2013-03-28 09:22:00,37.3,28.4,30.38,NE,56,6.0,9.0,70,0.00,,---,0.00,VWS V14.01,2013-03-28 14:22:00,
2013-03-28 09:27:00,37.8,28.9,30.38,East,84,3.0,9.0,70,0.00,,---,0.00,VWS V14.01,2013-03-28 14:27:00,
2013-03-28 09:30:00,38.1,28.8,30.38,ESE,121,2.0,9.0,69,0.00,,---,0.00,VWS V14.01,2013-03-28 14:30:00,
2013-03-28 09:32:00,38.5,28.5,30.38,SE,146,5.0,7.0,67,0.00,,---,0.00,VWS V14.01,2013-03-28 14:32:00,
2013-03-28 09:37:00,39.0,29.4,30.38,East,91,1.0,7.0,68,0.00,,---,0.00,VWS V14.01,2013-03-28 14:37:00,
2013-03-28 09:42:00,40.0,29.9,30.38,SSE,148,4.0,7.0,67,0.00,,---,0.00,VWS V14.01,2013-03-28 14:42:00,
2013-03-28 09:47:00,40.5,29.3,30.38,East,89,3.0,7.0,64,0.00,,---,0.00,VWS V14.01,2013-03-28 14:47:00,
2013-03-28 09:52:00,40.4,28.4,30.38,East,89,4.0,9.0,62,0.00,,---,0.00,VWS V14.01,2013-03-28 14:52:00,
2013-03-28 09:57:00,40.5,28.9,30.38,ESE,120,7.0,9.0,63,0.00,,---,0.00,VWS V14.01,2013-03-28 14:57:00,
2013-03-28 10:00:00,40.4,28.8,30.38,East,95,7.0,9.0,63,0.00,,---,0.00,VWS V14.01,2013-03-28 15:00:00,
2013-03-28 10:02:00,40.6,29.0,30.38,ESE,123,5.0,10.0,63,0.00,,---,0.00,VWS V14.01,2013-03-28 15:02:00,
2013-03-28 10:07:00,41.2,29.6,30.38,East,94,6.0,10.0,63,0.00,,---,0.00,VWS V14.01,2013-03-28 15:07:00,
2013-03-28 10:12:00,41.5,30.2,30.38,East,91,5.0,11.0,64,0.00,,---,0.00,VWS V14.01,2013-03-28 15:12:00,
2013-03-28 10:18:00,41.9,29.5,30.38,ESE,117,4.0,11.0,61,0.00,,---,0.00,VWS V14.01,2013-03-28 15:18:00,
2013-03-28 10:23:00,42.0,29.1,30.37,East,99,4.0,13.0,60,0.00,,---,0.00,VWS V14.01,2013-03-28 15:23:00,
2013-03-28 10:28:00,42.3,29.4,30.38,East,99,6.0,13.0,60,0.00,,---,0.00,VWS V14.01,2013-03-28 15:28:00,
2013-03-28 10:30:00,42.4,29.5,30.38,East,86,9.0,13.0,60,0.00,,---,0.00,VWS V14.01,2013-03-28 15:30:00,
2013-03-28 10:33:00,42.6,29.3,30.37,ENE,68,4.0,12.0,59,0.00,,---,0.00,VWS V14.01,2013-03-28 15:33:00,
2013-03-28 10:38:00,42.6,29.3,30.38,SE,129,6.0,14.0,59,0.00,,---,0.00,VWS V14.01,2013-03-28 15:38:00,
2013-03-28 10:43:00,43.0,30.1,30.37,ENE,70,10.0,14.0,60,0.00,,---,0.00,VWS V14.01,2013-03-28 15:43:00,
2013-03-28 10:48:00,43.5,30.1,30.37,SE,130,4.0,14.0,59,0.00,,---,0.00,VWS V14.01,2013-03-28 15:48:00,
2013-03-28 10:53:00,43.8,29.6,30.37,ESE,110,5.0,14.0,57,0.00,,---,0.00,VWS V14.01,2013-03-28 15:53:00,
2013-03-28 10:58:00,44.7,30.4,30.37,East,94,7.0,14.0,57,0.00,,---,0.00,VWS V14.01,2013-03-28 15:58:00,
2013-03-28 11:00:00,44.7,30.0,30.37,East,85,5.0,14.0,56,0.00,,---,0.00,VWS V14.01,2013-03-28 16:00:00,
2013-03-28 11:03:00,44.8,29.6,30.37,ESE,116,3.0,10.0,55,0.00,,---,0.00,VWS V14.01,2013-03-28 16:03:00,
2013-03-28 11:08:00,45.0,29.4,30.37,East,82,4.0,12.0,54,0.00,,---,0.00,VWS V14.01,2013-03-28 16:08:00,
2013-03-28 11:14:00,45.0,29.4,30.37,ENE,74,7.0,12.0,54,0.00,,---,0.00,VWS V14.01,2013-03-28 16:14:00,
2013-03-28 11:19:00,45.3,30.1,30.37,ESE,103,6.0,12.0,55,0.00,,---,0.00,VWS V14.01,2013-03-28 16:19:00,
2013-03-28 11:24:00,45.2,30.0,30.37,ESE,113,7.0,13.0,55,0.00,,---,0.00,VWS V14.01,2013-03-28 16:24:00,
2013-03-28 11:29:00,45.2,30.5,30.37,East,89,8.0,13.0,56,0.00,,---,0.00,VWS V14.01,2013-03-28 16:29:00,
2013-03-28 11:30:00,45.2,30.5,30.37,SSW,203,6.0,13.0,56,0.00,,---,0.00,VWS V14.01,2013-03-28 16:30:00,
2013-03-28 11:34:00,45.9,30.7,30.37,NE,55,3.0,8.0,55,0.00,,---,0.00,VWS V14.01,2013-03-28 16:34:00,
2013-03-28 11:39:00,46.2,30.9,30.37,East,91,2.0,10.0,55,0.00,,---,0.00,VWS V14.01,2013-03-28 16:39:00,
2013-03-28 11:44:00,46.6,30.9,30.37,ENE,67,5.0,10.0,54,0.00,,---,0.00,VWS V14.01,2013-03-28 16:44:00,
2013-03-28 11:49:00,46.5,31.2,30.37,East,82,8.0,10.0,55,0.00,,---,0.00,VWS V14.01,2013-03-28 16:49:00,
2013-03-28 11:54:00,46.8,31.5,30.37,East,87,2.0,11.0,55,0.00,,---,0.00,VWS V14.01,2013-03-28 16:54:00,
2013-03-28 11:59:00,47.7,32.3,30.37,SE,134,0.0,11.0,55,0.00,,---,0.00,VWS V14.01,2013-03-28 16:59:00,
2013-03-28 12:00:00,47.8,32.4,30.37,SE,132,0.0,11.0,55,0.00,,---,0.00,VWS V14.01,2013-03-28 17:00:00,
2013-03-28 12:04:00,48.0,31.2,30.37,East,91,6.0,10.0,52,0.00,,---,0.00,VWS V14.01,2013-03-28 17:04:00,
2013-03-28 12:09:00,47.8,31.5,30.37,NE,53,6.0,10.0,53,0.00,,---,0.00,VWS V14.01,2013-03-28 17:09:00,
2013-03-28 12:14:00,48.4,32.1,30.36,East,82,10.0,12.0,53,0.00,,---,0.00,VWS V14.01,2013-03-28 17:14:00,
2013-03-28 12:19:00,48.0,31.7,30.36,ESE,117,1.0,12.0,53,0.00,,---,0.00,VWS V14.01,2013-03-28 17:19:00,
2013-03-28 12:24:00,48.4,31.6,30.36,NE,56,4.0,12.0,52,0.00,,---,0.00,VWS V14.01,2013-03-28 17:24:00,
2013-03-28 12:29:00,48.5,31.2,30.36,ENE,77,6.0,12.0,51,0.00,,---,0.00,VWS V14.01,2013-03-28 17:29:00,
2013-03-28 12:30:00,48.6,31.3,30.35,ENE,76,11.0,17.0,51,0.00,,---,0.00,VWS V14.01,2013-03-28 17:30:00,
2013-03-28 12:35:00,48.3,31.0,30.35,ENE,76,5.0,12.0,51,0.00,,---,0.00,VWS V14.01,2013-03-28 17:35:00,
2013-03-28 12:40:00,48.7,31.9,30.35,NE,53,5.0,12.0,52,0.00,,---,0.00,VWS V14.01,2013-03-28 17:40:00,
2013-03-28 12:45:00,48.9,32.1,30.35,ESE,120,4.0,12.0,52,0.00,,---,0.00,VWS V14.01,2013-03-28 17:45:00,
2013-03-28 12:50:00,49.3,32.0,30.35,East,82,6.0,16.0,51,0.00,,---,0.00,VWS V14.01,2013-03-28 17:50:00,
2013-03-28 12:55:00,49.1,32.7,30.34,ESE,106,6.0,16.0,53,0.00,,---,0.00,VWS V14.01,2013-03-28 17:55:00,
2013-03-28 13:00:00,49.5,31.6,30.34,ENE,71,4.0,12.0,50,0.00,,---,0.00,VWS V14.01,2013-03-28 18:00:00,
2013-03-28 13:05:00,49.7,32.3,30.34,ENE,72,3.0,12.0,51,0.00,,---,0.00,VWS V14.01,2013-03-28 18:05:00,
2013-03-28 13:10:00,49.9,32.0,30.34,East,96,11.0,14.0,50,0.00,,---,0.00,VWS V14.01,2013-03-28 18:10:00,
2013-03-28 13:15:00,50.0,32.1,30.34,ENE,68,6.0,14.0,50,0.00,,---,0.00,VWS V14.01,2013-03-28 18:15:00,
2013-03-28 13:20:00,50.5,32.6,30.34,East,94,11.0,14.0,50,0.00,,---,0.00,VWS V14.01,2013-03-28 18:20:00,
2013-03-28 13:25:00,50.1,32.2,30.34,NE,50,6.0,14.0,50,0.00,,---,0.00,VWS V14.01,2013-03-28 18:25:00,
2013-03-28 13:30:00,50.6,33.2,30.34,ESE,107,9.0,10.0,51,0.00,,---,0.00,VWS V14.01,2013-03-28 18:30:00,
2013-03-28 13:35:00,50.7,31.7,30.34,SE,136,5.0,11.0,48,0.00,,---,0.00,VWS V14.01,2013-03-28 18:35:00,
2013-03-28 13:41:00,50.6,31.6,30.33,SE,142,3.0,12.0,48,0.00,,---,0.00,VWS V14.01,2013-03-28 18:41:00,
2013-03-28 13:46:00,50.8,32.3,30.33,East,92,5.0,12.0,49,0.00,,---,0.00,VWS V14.01,2013-03-28 18:46:00,
2013-03-28 13:51:00,50.7,32.2,30.33,South,186,3.0,12.0,49,0.00,,---,0.00,VWS V14.01,2013-03-28 18:51:00,
2013-03-28 13:56:00,51.4,33.4,30.33,NE,53,4.0,12.0,50,0.00,,---,0.00,VWS V14.01,2013-03-28 18:56:00,
2013-03-28 14:00:00,51.6,32.0,30.33,SSE,152,4.0,12.0,47,0.00,,---,0.00,VWS V14.01,2013-03-28 19:00:00,
2013-03-28 14:01:00,51.5,33.0,30.32,NW,319,2.0,7.0,49,0.00,,---,0.00,VWS V14.01,2013-03-28 19:01:00,
2013-03-28 14:06:00,52.0,32.9,30.32,East,91,3.0,10.0,48,0.00,,---,0.00,VWS V14.01,2013-03-28 19:06:00,
2013-03-28 14:12:00,52.2,32.6,30.31,SE,127,10.0,13.0,47,0.00,,---,0.00,VWS V14.01,2013-03-28 19:12:00,
2013-03-28 14:17:00,52.0,32.9,30.31,ESE,114,4.0,13.0,48,0.00,,---,0.00,VWS V14.01,2013-03-28 19:17:00,
2013-03-28 14:22:00,52.3,33.2,30.30,ESE,123,4.0,13.0,48,0.00,,---,0.00,VWS V14.01,2013-03-28 19:22:00,
2013-03-28 14:27:00,53.3,34.1,30.31,ENE,72,2.0,13.0,48,0.00,,---,0.00,VWS V14.01,2013-03-28 19:27:00,
2013-03-28 14:30:00,53.3,34.1,30.30,SE,146,2.0,13.0,48,0.00,,---,0.00,VWS V14.01,2013-03-28 19:30:00,
2013-03-28 14:32:00,53.5,33.8,30.30,ESE,113,4.0,7.0,47,0.00,,---,0.00,VWS V14.01,2013-03-28 19:32:00,
2013-03-28 14:37:00,53.5,33.2,30.30,East,101,2.0,9.0,46,0.00,,---,0.00,VWS V14.01,2013-03-28 19:37:00,
2013-03-28 14:42:00,53.2,33.0,30.30,SE,135,3.0,9.0,46,0.00,,---,0.00,VWS V14.01,2013-03-28 19:42:00,
2013-03-28 14:47:00,53.0,33.3,30.30,ESE,113,6.0,11.0,47,0.00,,---,0.00,VWS V14.01,2013-03-28 19:47:00,
2013-03-28 14:52:00,52.9,33.2,30.29,East,86,7.0,14.0,47,0.00,,---,0.00,VWS V14.01,2013-03-28 19:52:00,
2013-03-28 14:57:00,53.5,33.8,30.29,East,79,5.0,14.0,47,0.00,,---,0.00,VWS V14.01,2013-03-28 19:57:00,
2013-03-28 15:00:00,53.6,33.3,30.29,East,91,6.0,14.0,46,0.00,,---,0.00,VWS V14.01,2013-03-28 20:00:00,
2013-03-28 15:02:00,53.8,33.5,30.29,East,84,2.0,7.0,46,0.00,,---,0.00,VWS V14.01,2013-03-28 20:02:00,
2013-03-28 15:07:00,54.4,34.6,30.29,SE,127,6.0,7.0,47,0.00,,---,0.00,VWS V14.01,2013-03-28 20:07:00,
2013-03-28 15:12:00,54.1,33.8,30.28,East,89,7.0,10.0,46,0.00,,---,0.00,VWS V14.01,2013-03-28 20:12:00,
2013-03-28 15:18:00,54.5,33.6,30.28,SE,136,4.0,12.0,45,0.00,,---,0.00,VWS V14.01,2013-03-28 20:18:00,
2013-03-28 15:23:00,54.6,33.7,30.28,SSE,148,0.0,12.0,45,0.00,,---,0.00,VWS V14.01,2013-03-28 20:23:00,
2013-03-28 15:28:00,54.8,33.9,30.28,ESE,120,3.0,12.0,45,0.00,,---,0.00,VWS V14.01,2013-03-28 20:28:00,
2013-03-28 15:30:00,54.8,33.9,30.28,SSE,166,3.0,12.0,45,0.00,,---,0.00,VWS V14.01,2013-03-28 20:30:00,
2013-03-28 15:33:00,54.9,34.0,30.28,SSE,166,6.0,8.0,45,0.00,,---,0.00,VWS V14.01,2013-03-28 20:33:00,
2013-03-28 15:38:00,54.5,33.0,30.28,SE,131,4.0,12.0,44,0.00,,---,0.00,VWS V14.01,2013-03-28 20:38:00,
2013-03-28 15:43:00,54.6,33.7,30.27,East,91,6.0,12.0,45,0.00,,---,0.00,VWS V14.01,2013-03-28 20:43:00,
2013-03-28 15:48:00,54.3,33.4,30.27,ESE,102,4.0,12.0,45,0.00,,---,0.00,VWS V14.01,2013-03-28 20:48:00,
2013-03-28 15:53:00,54.4,34.1,30.27,ESE,105,5.0,12.0,46,0.00,,---,0.00,VWS V14.01,2013-03-28 20:53:00,
2013-03-28 15:58:00,54.7,34.3,30.27,East,91,3.0,12.0,46,0.00,,---,0.00,VWS V14.01,2013-03-28 20:58:00,
2013-03-28 16:00:00,54.9,34.5,30.27,SE,129,3.0,12.0,46,0.00,,---,0.00,VWS V14.01,2013-03-28 21:00:00,
2013-03-28 16:03:00,54.9,34.0,30.27,East,98,7.0,9.0,45,0.00,,---,0.00,VWS V14.01,2013-03-28 21:03:00,
2013-03-28 16:08:00,54.7,33.8,30.27,East,84,6.0,9.0,45,0.00,,---,0.00,VWS V14.01,2013-03-28 21:08:00,
2013-03-28 16:13:00,54.3,33.4,30.27,ESE,123,1.0,12.0,45,0.00,,---,0.00,VWS V14.01,2013-03-28 21:13:00,
2013-03-28 16:18:00,54.6,34.8,30.27,ENE,68,7.0,12.0,47,0.00,,---,0.00,VWS V14.01,2013-03-28 21:18:00,
2013-03-28 16:23:00,55.2,34.8,30.27,SW,214,5.0,12.0,46,0.00,,---,0.00,VWS V14.01,2013-03-28 21:23:00,
2013-03-28 16:28:00,55.1,34.2,30.27,East,91,4.0,12.0,45,0.00,,---,0.00,VWS V14.01,2013-03-28 21:28:00,
2013-03-28 16:30:00,55.0,34.1,30.27,ESE,103,8.0,12.0,45,0.00,,---,0.00,VWS V14.01,2013-03-28 21:30:00,
2013-03-28 16:33:00,54.7,34.3,30.27,ESE,110,1.0,11.0,46,0.00,,---,0.00,VWS V14.01,2013-03-28 21:33:00,
2013-03-28 16:39:00,54.7,34.3,30.27,East,84,4.0,11.0,46,0.00,,---,0.00,VWS V14.01,2013-03-28 21:39:00,
2013-03-28 16:44:00,54.7,34.3,30.27,ENE,78,8.0,11.0,46,0.00,,---,0.00,VWS V14.01,2013-03-28 21:44:00,
2013-03-28 16:49:00,54.7,34.9,30.27,ENE,71,3.0,11.0,47,0.00,,---,0.00,VWS V14.01,2013-03-28 21:49:00,
2013-03-28 16:54:00,55.0,34.6,30.27,ESE,120,4.0,12.0,46,0.00,,---,0.00,VWS V14.01,2013-03-28 21:54:00,
2013-03-28 16:59:00,55.3,34.9,30.27,East,89,4.0,12.0,46,0.00,,---,0.00,VWS V14.01,2013-03-28 21:59:00,
2013-03-28 17:00:00,55.3,34.9,30.27,East,91,6.0,12.0,46,0.00,,---,0.00,VWS V14.01,2013-03-28 22:00:00,
2013-03-28 17:04:00,55.1,34.7,30.27,ENE,68,4.0,10.0,46,0.00,,---,0.00,VWS V14.01,2013-03-28 22:04:00,
2013-03-28 17:09:00,54.7,34.9,30.27,East,82,5.0,12.0,47,0.00,,---,0.00,VWS V14.01,2013-03-28 22:09:00,
2013-03-28 17:14:00,54.6,34.8,30.27,East,94,5.0,12.0,47,0.00,,---,0.00,VWS V14.01,2013-03-28 22:14:00,
2013-03-28 17:19:00,54.5,34.7,30.27,East,93,5.0,12.0,47,0.00,,---,0.00,VWS V14.01,2013-03-28 22:19:00,
2013-03-28 17:24:00,54.1,34.9,30.27,ENE,65,3.0,12.0,48,0.00,,---,0.00,VWS V14.01,2013-03-28 22:24:00,
2013-03-28 17:29:00,54.2,34.4,30.27,East,87,5.0,12.0,47,0.00,,---,0.00,VWS V14.01,2013-03-28 22:29:00,
2013-03-28 17:30:00,54.2,34.4,30.27,East,101,6.0,12.0,47,0.00,,---,0.00,VWS V14.01,2013-03-28 22:30:00,
2013-03-28 17:34:00,54.2,34.4,30.27,East,86,5.0,9.0,47,0.00,,---,0.00,VWS V14.01,2013-03-28 22:34:00,
2013-03-28 17:39:00,54.1,34.9,30.27,East,81,4.0,9.0,48,0.00,,---,0.00,VWS V14.01,2013-03-28 22:39:00,
2013-03-28 17:44:00,54.0,34.8,30.27,SE,132,5.0,10.0,48,0.00,,---,0.00,VWS V14.01,2013-03-28 22:44:00,
2013-03-28 17:49:00,53.9,34.7,30.27,ESE,102,6.0,10.0,48,0.00,,---,0.00,VWS V14.01,2013-03-28 22:49:00,
2013-03-28 17:54:00,53.8,35.1,30.27,ENE,71,5.0,10.0,49,0.00,,---,0.00,VWS V14.01,2013-03-28 22:54:00,
2013-03-28 17:59:00,53.6,34.4,30.27,East,96,5.0,7.0,48,0.00,,---,0.00,VWS V14.01,2013-03-28 22:59:00,
2013-03-28 18:00:00,53.6,34.4,30.27,East,96,6.0,10.0,48,0.00,,---,0.00,VWS V14.01,2013-03-28 23:00:00,
2013-03-28 18:05:00,53.4,34.7,30.27,East,98,3.0,7.0,49,0.00,,---,0.00,VWS V14.01,2013-03-28 23:05:00,
2013-03-28 18:10:00,53.3,34.7,30.27,ESE,112,6.0,8.0,49,0.00,,---,0.00,VWS V14.01,2013-03-28 23:10:00,
2013-03-28 18:15:00,53.2,34.5,30.27,NNE,23,3.0,9.0,49,0.00,,---,0.00,VWS V14.01,2013-03-28 23:15:00,
2013-03-28 18:20:00,53.0,34.9,30.27,East,91,5.0,9.0,50,0.00,,---,0.00,VWS V14.01,2013-03-28 23:20:00,
2013-03-28 18:25:00,53.0,34.9,30.27,ENE,78,4.0,9.0,50,0.00,,---,0.00,VWS V14.01,2013-03-28 23:25:00,
2013-03-28 18:30:00,52.9,35.3,30.27,East,86,2.0,8.0,51,0.00,,---,0.00,VWS V14.01,2013-03-28 23:30:00,
2013-03-28 18:35:00,52.7,35.1,30.27,ENE,72,7.0,9.0,51,0.00,,---,0.00,VWS V14.01,2013-03-28 23:35:00,
2013-03-28 18:40:00,52.6,35.5,30.27,East,80,3.0,10.0,52,0.00,,---,0.00,VWS V14.01,2013-03-28 23:40:00,
2013-03-28 18:45:00,52.5,35.4,30.27,ENE,74,3.0,10.0,52,0.00,,---,0.00,VWS V14.01,2013-03-28 23:45:00,
2013-03-28 18:50:00,52.3,35.7,30.27,NE,46,3.0,10.0,53,0.00,,---,0.00,VWS V14.01,2013-03-28 23:50:00,
2013-03-28 18:55:00,52.0,35.4,30.28,ENE,74,3.0,10.0,53,0.00,,---,0.00,VWS V14.01,2013-03-28 23:55:00,
2013-03-28 19:00:00,51.7,35.1,30.28,East,81,8.0,10.0,53,0.00,,---,0.00,VWS V14.01,2013-03-29 00:00:00,
2013-03-28 19:05:00,51.5,35.4,30.28,ENE,68,3.0,10.0,54,0.00,,---,0.00,VWS V14.01,2013-03-29 00:05:00,
2013-03-28 19:11:00,51.2,35.6,30.28,ENE,75,1.0,10.0,55,0.00,,---,0.00,VWS V14.01,2013-03-29 00:11:00,
2013-03-28 19:16:00,50.9,35.3,30.28,East,85,2.0,10.0,55,0.00,,---,0.00,VWS V14.01,2013-03-29 00:16:00,
2013-03-28 19:21:00,50.6,35.0,30.28,ENE,65,2.0,10.0,55,0.00,,---,0.00,VWS V14.01,2013-03-29 00:21:00,
2013-03-28 19:26:00,50.4,35.3,30.28,ENE,71,4.0,10.0,56,0.00,,---,0.00,VWS V14.01,2013-03-29 00:26:00,
2013-03-28 19:30:00,50.3,35.2,30.28,SE,137,4.0,10.0,56,0.00,,---,0.00,VWS V14.01,2013-03-29 00:30:00,
2013-03-28 19:31:00,50.2,35.6,30.28,East,95,2.0,3.0,57,0.00,,---,0.00,VWS V14.01,2013-03-29 00:31:00,
2013-03-28 19:36:00,50.0,35.4,30.28,ENE,58,2.0,4.0,57,0.00,,---,0.00,VWS V14.01,2013-03-29 00:36:00,
2013-03-28 19:41:00,49.7,35.5,30.28,ENE,57,2.0,5.0,58,0.00,,---,0.00,VWS V14.01,2013-03-29 00:41:00,
2013-03-28 19:46:00,49.5,35.8,30.28,ENE,72,2.0,5.0,59,0.00,,---,0.00,VWS V14.01,2013-03-29 00:46:00,
2013-03-28 19:52:00,49.1,35.8,30.28,ENE,75,2.0,5.0,60,0.00,,---,0.00,VWS V14.01,2013-03-29 00:52:00,
2013-03-28 19:57:00,48.8,36.0,30.28,NE,53,2.0,5.0,61,0.00,,---,0.00,VWS V14.01,2013-03-29 00:57:00,
2013-03-28 20:00:00,48.6,35.8,30.28,ENE,71,2.0,5.0,61,0.00,,---,0.00,VWS V14.01,2013-03-29 01:00:00,
2013-03-28 20:02:00,48.5,35.7,30.28,ENE,75,2.0,4.0,61,0.00,,---,0.00,VWS V14.01,2013-03-29 01:02:00,
2013-03-28 20:07:00,48.3,35.9,30.28,NE,47,2.0,4.0,62,0.00,,---,0.00,VWS V14.01,2013-03-29 01:07:00,
2013-03-28 20:12:00,48.1,35.7,30.28,East,82,2.0,4.0,62,0.00,,---,0.00,VWS V14.01,2013-03-29 01:12:00,
2013-03-28 20:17:00,48.0,35.6,30.28,NE,51,2.0,4.0,62,0.00,,---,0.00,VWS V14.01,2013-03-29 01:17:00,
2013-03-28 20:22:00,47.9,35.9,30.29,East,80,3.0,5.0,63,0.00,,---,0.00,VWS V14.01,2013-03-29 01:22:00,
2013-03-28 20:27:00,47.6,36.0,30.29,ENE,75,2.0,5.0,64,0.00,,---,0.00,VWS V14.01,2013-03-29 01:27:00,
2013-03-28 20:30:00,47.5,35.9,30.29,East,96,2.0,6.0,64,0.00,,---,0.00,VWS V14.01,2013-03-29 01:30:00,
2013-03-28 20:32:00,47.3,36.2,30.29,ESE,108,3.0,7.0,65,0.00,,---,0.00,VWS V14.01,2013-03-29 01:32:00,
2013-03-28 20:37:00,47.0,35.9,30.29,NE,38,2.0,7.0,65,0.00,,---,0.00,VWS V14.01,2013-03-29 01:37:00,
2013-03-28 20:42:00,46.7,36.0,30.29,ENE,57,1.0,7.0,66,0.00,,---,0.00,VWS V14.01,2013-03-29 01:42:00,
2013-03-28 20:47:00,46.4,36.0,30.29,ENE,68,4.0,7.0,67,0.00,,---,0.00,VWS V14.01,2013-03-29 01:47:00,
2013-03-28 20:53:00,46.1,35.8,30.29,ENE,65,2.0,7.0,67,0.00,,---,0.00,VWS V14.01,2013-03-29 01:53:00,
2013-03-28 20:58:00,46.0,35.7,30.30,NE,56,4.0,7.0,67,0.00,,---,0.00,VWS V14.01,2013-03-29 01:58:00,
2013-03-28 21:00:00,45.9,35.6,30.30,East,85,2.0,7.0,67,0.00,,---,0.00,VWS V14.01,2013-03-29 02:00:00,
2013-03-28 21:03:00,45.8,35.5,30.30,East,98,3.0,7.0,67,0.00,,---,0.00,VWS V14.01,2013-03-29 02:03:00,
2013-03-28 21:08:00,45.6,35.3,30.30,NE,39,2.0,7.0,67,0.00,,---,0.00,VWS V14.01,2013-03-29 02:08:00,
2013-03-28 21:13:00,45.5,35.6,30.30,ENE,60,4.0,7.0,68,0.00,,---,0.00,VWS V14.01,2013-03-29 02:13:00,
2013-03-28 21:18:00,45.3,35.4,30.30,ESE,115,3.0,7.0,68,0.00,,---,0.00,VWS V14.01,2013-03-29 02:18:00,
2013-03-28 21:23:00,45.2,35.3,30.30,ENE,58,2.0,7.0,68,0.00,,---,0.00,VWS V14.01,2013-03-29 02:23:00,
2013-03-28 21:28:00,45.1,35.2,30.30,NE,46,3.0,7.0,68,0.00,,---,0.00,VWS V14.01,2013-03-29 02:28:00,
2013-03-28 21:30:00,45.1,35.2,30.30,ENE,70,5.0,7.0,68,0.00,,---,0.00,VWS V14.01,2013-03-29 02:30:00,
2013-03-28 21:33:00,44.9,35.0,30.30,East,99,3.0,6.0,68,0.00,,---,0.00,VWS V14.01,2013-03-29 02:33:00,
2013-03-28 21:38:00,44.8,34.9,30.30,NE,41,4.0,6.0,68,0.00,,---,0.00,VWS V14.01,2013-03-29 02:38:00,
2013-03-28 21:43:00,44.7,34.8,30.31,East,81,5.0,6.0,68,0.00,,---,0.00,VWS V14.01,2013-03-29 02:43:00,
2013-03-28 21:48:00,44.5,34.6,30.31,ENE,72,5.0,7.0,68,0.00,,---,0.00,VWS V14.01,2013-03-29 02:48:00,
2013-03-28 21:53:00,44.4,34.9,30.31,ENE,58,3.0,7.0,69,0.00,,---,0.00,VWS V14.01,2013-03-29 02:53:00,
2013-03-28 21:59:00,44.1,34.6,30.31,ENE,58,1.0,7.0,69,0.00,,---,0.00,VWS V14.01,2013-03-29 02:59:00,
2013-03-28 22:00:00,44.1,34.6,30.31,NE,47,3.0,7.0,69,0.00,,---,0.00,VWS V14.01,2013-03-29 03:00:00,
2013-03-28 22:04:00,44.0,34.5,30.31,NE,56,2.0,5.0,69,0.00,,---,0.00,VWS V14.01,2013-03-29 03:04:00,
2013-03-28 22:09:00,43.9,34.4,30.31,East,87,3.0,5.0,69,0.00,,---,0.00,VWS V14.01,2013-03-29 03:09:00,
2013-03-28 22:14:00,43.7,34.6,30.32,ENE,71,2.0,5.0,70,0.00,,---,0.00,VWS V14.01,2013-03-29 03:14:00,
2013-03-28 22:19:00,43.4,34.3,30.32,East,79,1.0,7.0,70,0.00,,---,0.00,VWS V14.01,2013-03-29 03:19:00,
2013-03-28 22:24:00,43.3,34.2,30.32,NE,49,3.0,7.0,70,0.00,,---,0.00,VWS V14.01,2013-03-29 03:24:00,
2013-03-28 22:29:00,43.1,34.3,30.31,ENE,61,2.0,7.0,71,0.00,,---,0.00,VWS V14.01,2013-03-29 03:29:00,
2013-03-28 22:30:00,43.1,34.3,30.31,ENE,61,2.0,7.0,71,0.00,,---,0.00,VWS V14.01,2013-03-29 03:30:00,
2013-03-28 22:34:00,43.0,34.2,30.31,ENE,70,2.0,4.0,71,0.00,,---,0.00,VWS V14.01,2013-03-29 03:34:00,
2013-03-28 22:39:00,42.9,34.2,30.31,ENE,62,3.0,5.0,71,0.00,,---,0.00,VWS V14.01,2013-03-29 03:39:00,
2013-03-28 22:44:00,42.9,34.2,30.31,ENE,58,3.0,6.0,71,0.00,,---,0.00,VWS V14.01,2013-03-29 03:44:00,
2013-03-28 22:49:00,42.8,34.1,30.31,NE,53,4.0,6.0,71,0.00,,---,0.00,VWS V14.01,2013-03-29 03:49:00,
2013-03-28 22:54:00,42.7,34.0,30.31,East,98,1.0,6.0,71,0.00,,---,0.00,VWS V14.01,2013-03-29 03:54:00,
2013-03-28 22:59:00,42.6,33.9,30.31,East,95,2.0,4.0,71,0.00,,---,0.00,VWS V14.01,2013-03-29 03:59:00,
2013-03-28 23:00:00,42.6,33.9,30.31,East,94,1.0,4.0,71,0.00,,---,0.00,VWS V14.01,2013-03-29 04:00:00,
2013-03-28 23:02:00,42.7,34.0,30.31,East,79,1.0,5.0,71,0.00,,---,0.00,VWS V14.01,2013-03-29 04:02:00,
2013-03-28 23:07:00,42.7,34.0,30.31,ENE,68,1.0,5.0,71,0.00,,---,0.00,VWS V14.01,2013-03-29 04:07:00,
2013-03-28 23:12:00,42.6,33.9,30.31,East,101,1.0,5.0,71,0.00,,---,0.00,VWS V14.01,2013-03-29 04:12:00,
2013-03-28 23:17:00,42.6,33.9,30.31,ESE,106,1.0,5.0,71,0.00,,---,0.00,VWS V14.01,2013-03-29 04:17:00,
2013-03-28 23:22:00,42.4,33.7,30.31,East,88,2.0,5.0,71,0.00,,---,0.00,VWS V14.01,2013-03-29 04:22:00,
2013-03-28 23:27:00,42.2,33.5,30.31,ENE,69,3.0,6.0,71,0.00,,---,0.00,VWS V14.01,2013-03-29 04:27:00,
2013-03-28 23:30:00,42.2,33.5,30.31,East,81,3.0,6.0,71,0.00,,---,0.00,VWS V14.01,2013-03-29 04:30:00,
2013-03-28 23:32:00,42.0,33.3,30.31,East,89,1.0,3.0,71,0.00,,---,0.00,VWS V14.01,2013-03-29 04:32:00,
2013-03-28 23:37:00,41.6,33.3,30.31,ENE,75,1.0,4.0,72,0.00,,---,0.00,VWS V14.01,2013-03-29 04:37:00,
2013-03-28 23:42:00,41.2,33.2,30.31,ENE,63,0.0,4.0,73,0.00,,---,0.00,VWS V14.01,2013-03-29 04:42:00,
2013-03-28 23:47:00,40.8,32.8,30.31,ENE,58,1.0,4.0,73,0.00,,---,0.00,VWS V14.01,2013-03-29 04:47:00,
2013-03-28 23:52:00,40.6,33.0,30.31,ENE,78,0.0,4.0,74,0.00,,---,0.00,VWS V14.01,2013-03-29 04:52:00,
2013-03-28 23:58:00,40.3,32.7,30.31,ENE,78,0.0,4.0,74,0.00,,---,0.00,VWS V14.01,2013-03-29 04:58:00,